Orbital Elements at Epoch 2459000.5 (2020-May-31.0) TDB
Reference: JPL 30 (heliocentric ecliptic J2000)
Element | Value | Uncertainty (1-sigma) | Units |
e | .1485590384412909 | 3.3058e-08 | |
a | 2.310997797122251 | 7.1056e-09 | au |
q | 1.967678186541828 | 7.4878e-08 | au |
i | 6.747900908468602 | 3.2286e-06 | deg |
node | 149.6539423551522 | 2.7167e-05 | deg |
peri | 231.3315360646673 | 2.9224e-05 | deg |
M | 119.9956607303047 | 1.1014e-05 | deg |
tp | 2458572.778811635637 (2019-Mar-30.27881164) | 3.8844e-05 | TDB |
period | 1283.209966710765 3.51 | 5.9182e-06 1.62e-08 | d yr |
n | .2805464494035868 | 1.2939e-09 | deg/d |
Q | 2.654317407702674 | 8.1612e-09 | au |
|
| | Orbit Determination Parameters
Additional Information
|